Temp_Advection
nan nan nan nan nan nan nan nan nan nan nan nan nan nan nan nan nan nan nan nan nan nan nan nan nan nan nan nan nan nan nan nan nan nan nan nan nan nan nan nan nan nan nan nan nan nan nan nan nan nan nan nan nan nan nan nan nan nan nan nan nan nan nan nan nan nan nan nan nan
nan -0 -0 -0 0 0 0 0 0 0 0 0 -0 -0 -0 -0 -1 -1 -1 -1 -1 -1 -1 -1 -1 -0 -0 -0 0 0 -0 -1 -1 -1 -1 -1 -1 -1 -0 -0 -0 0 0 0 0 0 -0 -0 -1 -1 -2 -2 -2 -2 -2 -1 -1 -2 -2 -1 -0 0 1 1 1 -0 -1 -1 nan
nan -1 -0 -0 -0 0 1 1 1 1 1 1 1 0 0 0 -0 -0 -1 -1 -1 -1 -1 -1 -1 -1 -0 -0 -0 0 -0 -0 -1 -1 -1 -1 -1 -1 -1 -0 -0 0 0 0 0 0 0 -0 -1 -1 -2 -2 -2 -2 -2 -2 -1 -2 -2 -2 -1 -0 0 1 1 0 -1 -1 nan
nan -0 -0 -0 -0 -0 0 1 1 1 1 1 1 0 0 0 0 0 -0 -1 -1 -1 -1 -1 -1 -1 -0 -0 -0 -0 0 -0 -1 -1 -1 -1 -1 -1 -1 -0 -0 -0 0 0 1 0 0 0 -1 -1 -1 -2 -2 -2 -2 -2 -2 -2 -2 -2 -1 -1 -0 1 1 0 -0 -0 nan
nan -0 -0 -0 -0 -0 -0 0 0 1 0 0 0 0 0 0 0 0 -0 -0 -0 -0 -1 -1 -1 -1 -1 -0 -0 -0 -0 -0 -0 -1 -1 -1 -1 -1 -1 -0 -0 -0 0 0 0 0 0 0 -0 -1 -1 -1 -2 -2 -2 -2 -2 -2 -2 -2 -1 -0 0 0 0 0 0 0 nan
nan -0 -0 -0 -1 -1 -0 -0 0 0 0 0 -0 -0 0 0 0 0 -0 -0 -0 -0 -0 -1 -1 -1 -1 -1 -0 -0 -0 -0 -0 -1 -1 -1 -1 -1 -1 -1 -0 -0 -0 0 0 0 0 0 -0 -1 -1 -1 -2 -2 -1 -1 -1 -2 -2 -2 -1 -0 -0 0 1 1 1 1 nan
nan -0 -0 -0 -0 -1 -1 -1 -0 -0 0 0 -0 -0 -0 0 0 0 0 -0 -0 -0 -0 -0 -1 -1 -1 -1 -0 -0 -0 0 -0 -0 -1 -1 -1 -1 -1 -1 -0 -0 -0 0 0 0 0 0 -0 -1 -1 -1 -2 -2 -1 -1 -1 -1 -2 -2 -1 -1 -1 -1 0 1 1 1 nan
nan -0 -0 -0 -0 -0 -1 -1 -1 -1 -0 -0 -0 -0 -0 0 0 0 0 0 -0 -0 -0 -0 -0 -0 -0 -1 -0 -0 -0 -0 -0 -0 -1 -1 -1 -1 -1 -1 -0 -0 0 0 0 0 0 0 -0 -1 -1 -1 -2 -2 -1 -1 -1 -1 -1 -2 -1 -1 -1 -1 -1 0 1 1 nan
nan -0 -0 -0 -0 -0 -0 -1 -1 -1 -1 -0 -0 0 0 0 0 0 0 0 -0 -0 -0 -0 -0 -0 -0 -0 -0 -0 -0 -0 -0 -0 -0 -1 -1 -1 -1 -1 -1 -0 0 0 0 0 0 -0 -0 -1 -1 -1 -2 -2 -1 -1 -1 -1 -1 -1 -1 -1 -1 -1 -1 -1 0 1 nan
nan -0 -0 -0 -0 -0 -1 -1 -1 -0 -1 -1 -1 -0 0 0 0 0 0 -0 -0 -0 -0 -0 -0 -0 -1 -1 -0 -0 -0 -0 -0 -0 -1 -1 -1 -1 -1 -1 -1 -0 -0 0 0 0 -0 -0 -1 -1 -0 -1 -1 -2 -2 -2 -1 -1 -1 -1 -1 -2 -2 -1 -1 -0 0 0 nan
nan -0 -0 -0 -0 -0 -0 -1 -1 -1 -1 -1 -1 -1 -0 -0 -0 0 0 -0 -0 -1 -0 -0 -0 -0 -1 -1 -1 -0 -0 -0 -0 -0 -1 -1 -1 -1 -1 -1 -1 -1 -0 -0 0 -0 -0 -0 -1 -1 -0 -0 -1 -2 -2 -2 -2 -2 -2 -1 -1 -2 -2 -2 -0 1 1 0 nan
nan -0 -0 -0 -0 -0 -0 -0 -1 -1 -1 -1 -1 -1 -1 -1 -0 -0 -0 -0 -1 -1 -1 -0 -0 -0 -1 -1 -1 -0 -0 -0 -0 -0 -1 -1 -1 -1 -1 -1 -1 -1 -0 -0 0 -0 -1 -1 -0 -0 -0 0 0 -1 -2 -2 -2 -2 -3 -2 -1 -1 -2 -2 -0 1 1 -0 nan
nan -0 -0 -0 -0 -0 -0 -0 -1 -1 -1 -1 -1 -1 -1 -1 -0 -0 -0 -1 -1 -1 -1 -0 -0 -0 -1 -1 -1 -1 -0 -0 -0 -0 -1 -1 -1 -1 -1 -1 -1 -0 -0 -0 0 -0 -1 -1 -0 -0 0 0 1 0 -0 -1 -2 -2 -3 -3 -2 -2 -2 -2 -1 0 1 -0 nan
nan -0 0 0 0 0 -0 -0 -1 -1 -1 -1 -1 -1 -1 -1 -1 0 -0 -1 -1 -1 -1 -1 -1 -0 -0 -1 -1 -1 -1 -0 -0 -0 -0 -1 -1 -1 -1 -1 -1 -0 -0 -0 -0 -0 -0 -1 -1 -0 -0 0 0 1 1 0 -0 -1 -2 -2 -3 -3 -3 -2 -0 0 0 -1 nan
nan 0 0 0 0 0 0 -0 -0 -1 -1 -1 -1 -1 -1 -1 -1 0 0 -0 -1 -1 -1 -1 -1 -1 -1 -0 -1 -1 -1 -0 -0 -0 -1 -1 -1 -1 -1 -1 -1 -0 -0 -0 -0 -0 -0 -1 -1 -0 -0 -0 0 0 1 1 0 -0 -1 -1 -1 -3 -3 -2 -1 0 0 -1 nan
nan 0 0 0 0 0 0 0 -0 -1 -1 -1 -1 -0 -0 -0 -0 0 0 0 -1 -1 -1 -1 -1 -1 -1 -1 -1 -1 -1 -1 -0 -0 -0 -1 -1 -1 -1 -1 -1 -0 -0 -0 -0 -0 -0 -0 -1 -1 -1 -0 -0 0 1 1 1 0 -0 -0 -0 -1 -2 -2 -1 -0 -0 -1 nan
nan -0 -0 -0 0 0 0 0 0 -0 -1 -1 -0 0 0 0 -0 0 1 1 0 -0 -1 -1 -1 -1 -1 -1 -1 -1 -1 -1 -1 -0 -0 -0 -1 -1 -1 -0 -0 0 0 -0 -0 -1 -1 -0 -0 -0 -1 -1 -0 -0 1 1 1 0 -0 -0 -0 -1 -1 -1 -1 -1 -1 -2 nan
nan -1 -0 -1 -0 -0 0 0 0 0 -0 -0 -0 -0 0 1 0 0 0 1 1 0 -0 -1 -0 -0 -0 -1 -1 -0 -0 -1 -1 -0 -0 -0 -1 -1 -1 -0 0 0 0 0 -0 -1 -1 -1 -0 -0 -0 -0 -0 -0 0 1 1 0 -0 -0 -0 -0 -0 -0 -0 -0 -2 -3 nan
nan -1 -1 -1 -1 -1 -0 -0 -0 -0 -0 -0 -0 -0 0 1 1 0 -0 0 1 1 0 -1 -1 -1 -0 -0 -0 -0 -0 -0 -1 -1 -0 -0 -1 -1 -1 -0 0 0 1 0 -0 -1 -1 -1 -1 -0 -0 -0 -0 0 0 1 1 0 0 0 0 -0 -1 -1 -0 -0 -1 -2 nan
nan -1 -2 -1 -1 -1 -1 -1 -1 -1 -1 -1 -1 -0 -0 0 1 1 0 -0 0 1 0 -1 -1 -1 -1 -0 -0 -0 -0 -0 -0 -1 -1 -1 -1 -1 -1 -1 -0 0 0 0 0 -0 -0 -1 -1 -1 -1 -0 -0 -0 0 1 1 1 1 1 0 -0 -0 -1 -1 -1 -1 -2 nan
nan -1 -1 -2 -1 -2 -1 -1 -1 -1 -1 -1 -1 -1 -0 -0 0 1 0 0 0 0 0 -0 -1 -1 -1 -1 -1 -1 -0 -0 -0 -1 -1 -1 -1 -1 -1 -1 -1 -0 0 0 0 0 -0 -0 -1 -1 -1 -1 -1 -0 0 1 1 1 1 1 1 0 0 -0 -0 -1 -2 -3 nan
nan -1 -1 -1 -1 -2 -2 -2 -1 -1 -2 -1 -1 -1 -1 -0 0 0 0 0 0 0 -0 -0 -1 -1 -1 -1 -1 -1 -1 -0 -0 -0 -0 -1 -1 -1 -1 -1 -1 -1 -1 0 0 0 0 -0 -1 -1 -1 -1 -0 0 1 1 1 0 0 1 1 1 0 0 -0 -1 -2 -3 nan
nan -0 -1 -1 -1 -2 -2 -2 -2 -2 -2 -2 -2 -1 -1 -1 -1 -0 0 0 0 -0 -0 -0 -1 -1 -1 -1 -1 -1 -1 -1 -1 -0 -0 -0 -1 -1 -1 -1 -1 -1 -1 -0 0 0 0 -0 -1 -1 -1 -1 0 1 1 1 1 0 -0 0 1 1 1 -0 -1 -1 -2 -3 nan
nan -0 -0 -1 -1 -2 -2 -2 -3 -2 -2 -2 -2 -2 -2 -2 -1 -1 -1 -0 -0 0 -0 -0 -0 -0 -0 -1 -1 -1 -1 -1 -1 -1 -0 -0 -0 -1 -1 -1 -1 -1 -1 -0 0 0 -0 -1 -1 -1 -1 -0 0 1 1 1 1 0 0 0 1 1 1 -0 -1 -1 -1 -2 nan
nan -0 -0 -0 -1 -1 -2 -2 -3 -3 -3 -3 -2 -2 -2 -2 -2 -2 -2 -2 -1 -1 -0 -0 -0 -0 -0 -1 -1 -1 -1 -1 -1 -1 -1 -1 -0 -0 -1 -1 -1 -1 -1 -1 -0 0 0 -0 -0 -1 -1 -1 -0 -0 0 0 0 0 0 0 1 1 0 -1 -1 -2 -1 -1 nan
nan -0 -0 -0 -1 -1 -1 -2 -2 -3 -3 -3 -3 -2 -2 -2 -2 -2 -2 -3 -2 -2 -1 -1 -1 -1 -1 -1 -1 -1 -1 -1 -1 -1 -1 -1 -1 -0 -0 -1 -1 -1 -1 -1 -0 -0 0 0 0 0 -0 -0 -1 -0 -0 -0 -0 -0 0 1 1 1 -0 -1 -2 -2 -1 -1 nan
nan -1 -1 -1 -0 -1 -1 -1 -1 -2 -2 -2 -2 -2 -2 -2 -2 -2 -2 -3 -3 -2 -2 -1 -1 -1 -1 -1 -1 -1 -1 -1 -1 -1 -1 -1 -1 -1 -0 0 -1 -1 -1 -1 -1 -0 -0 0 0 1 0 0 -0 -0 0 0 -0 -0 0 1 1 -0 -1 -1 -2 -1 -1 -1 nan
nan -1 -1 -1 -1 -1 -1 -1 -1 -1 -2 -2 -2 -2 -2 -1 -1 -1 -2 -3 -3 -3 -2 -1 -1 -1 -0 -1 -1 -1 -1 -1 -1 -1 -1 -1 -1 -1 -0 0 -0 -1 -1 -1 -0 -0 -0 -0 0 0 0 0 0 0 0 0 -0 -0 0 0 -0 -1 -1 -1 -1 -1 -1 -1 nan
nan -1 -1 -1 -1 -0 -0 -0 -0 -1 -1 -1 -2 -1 -1 -1 -1 -1 -1 -2 -3 -3 -2 -1 -1 -0 -0 -0 -1 -1 -1 -1 -1 -1 -1 -1 -1 -1 -0 -0 -0 -0 -0 -0 -0 -1 -0 -0 -0 -0 0 1 1 1 1 0 -0 -0 0 -0 -1 -1 -1 -1 -1 -1 -1 -2 nan
nan -1 -1 -1 -1 -0 -0 -0 -0 -0 -1 -1 -1 -1 -1 -0 -0 0 -0 -1 -2 -2 -2 -1 -1 -0 -0 0 0 -0 -1 -1 -1 -1 -1 -1 -1 -1 -0 -0 -0 -0 -0 -0 -0 -1 -1 -0 -1 -0 -0 1 1 1 1 0 0 -0 -0 -1 -1 -1 -1 -1 -1 -1 -2 -2 nan
nan -1 -1 -1 -1 -0 -0 -0 -0 -0 -0 -1 -1 -1 -1 -1 -0 0 -0 -1 -2 -2 -2 -1 -1 -1 -0 0 0 0 -0 -0 -0 -0 -0 -1 -1 -1 -1 -0 -0 -0 -0 -0 -0 -1 -1 -1 -1 -1 -1 0 1 1 1 1 0 -0 -0 -1 -1 -1 -1 -1 -1 -1 -1 -2 nan
nan -0 -1 -1 -1 -0 -0 -0 -0 -0 -0 -1 -1 -1 -1 -1 -0 -0 -1 -1 -2 -2 -2 -2 -2 -2 -1 -0 -0 0 0 0 -0 -0 -0 -0 -1 -1 -1 -1 -0 -1 -0 -0 -1 -1 -1 -1 -1 -1 -1 -0 0 0 0 0 0 -0 -1 -1 -1 -1 -1 -0 -0 -0 -1 -2 nan
nan -0 -0 -0 -1 -0 -0 -0 -0 -0 -1 -1 -1 -1 -1 -1 -1 -1 -1 -2 -2 -2 -2 -2 -2 -2 -2 -1 -1 -1 -0 -0 0 -0 -0 -0 -0 -1 -1 -1 -1 -0 -0 -0 -0 -0 -1 -1 -1 -1 -1 -1 -0 0 0 0 0 -0 -0 -0 -0 -0 -0 -0 -0 -0 -1 -2 nan
nan -0 -0 -0 -0 -0 -0 -0 -0 -0 -1 -1 -1 -1 -1 -1 -1 -1 -1 -2 -2 -2 -2 -2 -2 -2 -2 -1 -1 -1 -1 -1 -0 0 -0 -0 -0 -0 -1 -1 -1 -0 -0 -0 -0 -0 -1 -1 -1 -1 -1 -1 -1 -0 0 0 -0 -0 -0 -0 -0 -0 -0 -0 -0 -1 -1 -1 nan
nan -0 -0 -0 -0 -0 -0 -0 -0 -0 -1 -1 -1 -1 -1 -1 -1 -1 -2 -2 -2 -2 -2 -2 -2 -2 -2 -1 -1 -1 -1 -1 -1 -0 -0 0 0 -0 -1 -1 -1 -0 -0 -0 -0 -0 -1 -1 -1 -1 -1 -1 -0 -0 -0 -0 -0 -0 -0 -0 -0 -0 -0 -0 -1 -1 -1 -1 nan
nan 0 0 -0 -0 -0 -0 -0 -0 -0 -1 -1 -1 -1 -1 -1 -1 -1 -1 -2 -2 -2 -2 -2 -2 -2 -2 -2 -1 -0 -0 -0 -0 -0 -0 -0 0 -0 -1 -1 -1 -0 -0 -0 -0 -1 -1 -1 -1 -1 -1 -1 -0 -0 -0 -0 -0 -0 -0 -0 -0 -0 -0 -1 -1 -1 -1 -1 nan
nan 0 0 0 0 0 -0 -0 -0 -0 -1 -1 -1 -1 -1 -1 -1 -1 -1 -2 -2 -2 -2 -2 -2 -2 -2 -2 -1 -1 -0 0 0 -0 -0 -0 -0 -0 -1 -1 -1 -0 -0 -0 -1 -1 -1 -0 -0 -0 -1 -1 -1 -1 -0 -0 -0 -0 -0 -0 -1 -1 -1 -1 -1 -1 -0 -0 nan
nan 0 0 0 0 0 0 -0 -0 -0 -0 -0 -0 -0 -0 -0 -1 -1 -2 -2 -2 -2 -2 -2 -2 -2 -2 -1 -2 -2 -1 0 1 0 -0 -0 -0 -0 -1 -1 -1 -1 -0 -0 -0 -1 -1 -1 -0 -0 -0 -1 -1 -1 -1 -1 -0 -0 -0 -1 -1 -1 -1 -1 -0 -0 0 0 nan
nan 1 1 1 0 0 0 0 0 -0 -0 -0 -0 -0 -0 -0 -1 -1 -2 -2 -2 -2 -2 -2 -2 -2 -2 -2 -2 -2 -1 -0 1 1 0 -0 -1 -0 -0 -1 -1 -1 -1 -0 -1 -0 -0 -0 -0 -0 -0 -0 -0 -0 -0 -1 -1 -1 -1 -1 -1 -1 -1 -1 -0 0 0 0 nan
nan 1 1 1 0 0 0 0 0 0 -0 -0 -0 -0 -0 -0 -1 -1 -2 -2 -2 -2 -2 -2 -2 -2 -2 -2 -2 -2 -2 -1 1 1 0 -0 -0 -0 -0 -1 -1 -1 -1 -1 -1 -1 -0 -0 -0 -0 -0 -0 0 0 0 -0 -0 -0 -0 -0 -1 -1 -1 -0 0 1 1 0 nan
nan nan nan nan nan nan nan nan nan nan nan nan nan nan nan nan nan nan nan nan nan nan nan nan nan nan nan nan nan nan nan nan nan nan nan nan nan nan nan nan nan nan nan nan nan nan nan nan nan nan nan nan nan nan nan nan nan nan nan nan nan nan nan nan nan nan nan nan nan
Wind_Speed
39 39 38 38 38 38 38 37 36 35 34 34 34 33 33 33 34 34 34 34 35 35 36 36 36 37 37 36 36 35 34 34 33 32 31 31 31 31 31 31 31 30 30 30 29 29 29 30 30 31 32 33 33 33 32 31 30 30 30 30 31 31 31 30 29 28 28 29 30
40 40 39 39 39 39 38 38 38 37 35 34 34 34 34 34 34 35 35 35 35 35 36 36 36 37 37 37 36 36 35 34 33 32 32 31 31 31 31 30 30 30 30 30 29 29 29 29 30 31 32 33 33 33 32 32 31 30 29 29 30 31 31 30 29 28 28 29 30
40 40 40 39 39 39 38 38 38 37 36 35 34 34 34 34 35 35 35 35 35 35 35 36 36 36 37 37 37 36 36 35 34 33 32 31 31 31 30 30 30 30 30 30 29 29 29 29 29 31 32 32 33 33 33 32 31 30 29 29 29 30 31 31 30 29 28 28 29
40 40 40 39 39 38 38 38 39 38 37 36 36 35 35 35 35 35 35 35 35 35 35 36 36 36 37 37 37 37 36 36 35 34 33 32 31 31 30 30 30 30 30 29 29 29 28 28 29 30 31 32 32 33 33 32 31 30 29 29 29 29 30 31 30 29 28 27 27
40 40 39 39 39 38 38 38 39 38 38 37 37 36 36 35 35 35 35 35 35 35 35 36 36 36 36 37 37 37 37 36 36 35 34 33 31 30 30 30 30 30 30 30 29 29 28 28 29 30 31 32 32 33 33 32 32 31 30 29 28 29 29 30 30 29 28 26 26
40 40 39 39 39 38 38 38 38 38 38 38 38 37 36 36 35 35 35 35 35 35 35 36 36 36 36 36 37 37 37 36 36 35 35 33 32 31 30 29 29 30 30 30 29 29 28 28 28 29 30 31 32 32 32 32 32 31 30 29 28 28 29 29 30 29 27 26 25
40 40 39 39 39 38 38 38 38 38 39 38 38 38 37 36 35 35 35 35 35 35 35 35 36 36 36 36 36 37 37 36 36 36 35 34 32 31 30 29 29 29 29 29 29 29 28 28 28 29 30 31 32 33 32 32 31 31 30 29 28 28 29 29 30 30 28 27 25
40 39 39 39 38 38 38 38 38 39 39 39 38 38 37 37 36 35 35 35 35 35 35 35 35 36 36 36 36 36 36 36 36 36 35 35 33 32 30 29 29 28 29 29 29 28 28 28 28 29 30 31 32 32 33 32 31 31 30 29 29 28 29 29 30 30 30 29 27
40 39 39 39 38 38 38 39 39 39 39 39 39 38 38 37 36 36 35 35 35 35 35 35 35 36 36 36 36 36 36 36 36 36 36 35 34 32 31 29 29 28 28 28 28 28 28 28 28 29 30 31 32 32 32 32 32 31 31 30 30 29 29 29 30 30 30 29 28
39 39 39 39 38 38 39 39 39 40 40 40 40 39 38 37 37 36 35 35 35 35 35 35 35 35 36 36 36 36 36 36 36 36 36 35 34 33 32 30 29 28 28 28 28 28 28 28 28 29 29 30 31 32 32 32 32 32 32 31 31 30 30 29 29 29 29 29 28
39 39 38 38 39 39 39 39 40 40 40 41 40 40 39 38 37 36 35 35 35 35 35 35 35 35 36 36 36 36 36 36 36 36 35 35 35 34 33 31 30 29 28 28 28 28 28 28 29 29 29 29 30 31 32 32 33 33 33 32 32 31 30 30 29 29 29 29 28
39 38 38 38 38 39 39 40 40 41 41 41 41 40 39 38 37 36 36 35 35 35 35 35 35 35 36 36 36 36 36 36 36 36 35 35 35 35 34 33 31 30 29 28 28 28 28 28 28 28 28 28 29 30 31 32 33 33 34 33 33 32 31 30 29 29 29 28 28
38 38 38 38 38 39 39 40 40 41 41 41 41 41 40 39 38 37 36 35 35 35 35 35 35 35 35 36 36 36 36 36 36 36 36 35 35 35 34 34 32 31 30 28 28 27 28 28 28 28 28 28 29 30 31 32 33 34 35 35 34 34 33 31 30 29 28 28 27
38 38 38 38 38 38 39 39 40 41 41 41 41 40 40 39 38 37 36 35 35 35 35 35 35 35 35 35 36 36 36 36 36 36 36 36 35 35 35 34 33 32 31 29 28 27 28 28 28 28 28 29 29 30 31 32 33 34 35 35 35 35 34 32 30 29 28 28 28
38 37 37 37 38 38 39 39 40 40 40 41 40 40 39 38 37 36 36 35 35 34 35 35 35 35 35 35 35 36 36 36 36 36 36 36 35 35 35 35 34 33 32 30 29 28 28 28 28 29 29 30 30 30 31 32 33 34 34 35 35 35 35 33 31 29 28 28 28
37 37 37 37 37 38 38 39 39 40 40 40 40 39 38 38 37 36 35 34 34 34 34 34 35 35 35 35 35 36 36 36 37 37 36 36 36 35 35 34 34 33 32 31 30 29 29 29 29 29 30 30 31 31 32 32 33 34 34 34 34 34 34 33 31 29 28 28 29
37 37 37 37 37 38 38 39 39 40 40 40 40 39 38 37 36 35 34 34 34 34 34 34 34 35 35 35 35 35 36 36 37 37 36 36 35 35 34 34 33 33 32 31 30 30 29 29 29 30 30 31 31 32 32 33 33 34 34 34 34 34 34 33 31 29 28 28 29
37 37 37 37 37 38 38 39 39 40 40 40 39 39 38 37 36 35 34 34 33 33 34 34 34 34 34 34 35 35 35 36 37 37 36 36 35 35 34 34 33 32 32 31 31 30 30 30 30 30 31 31 32 32 32 33 33 34 34 34 34 34 33 33 31 30 29 29 29
38 38 37 37 38 38 39 39 39 40 40 40 39 39 38 37 36 35 34 34 33 33 34 34 34 34 34 34 34 35 35 36 36 37 37 36 36 35 34 33 33 32 32 31 31 30 30 30 30 31 31 31 32 32 32 32 33 33 33 34 33 33 33 33 32 30 28 28 29
39 39 38 38 38 38 39 39 39 40 40 40 39 39 38 38 37 36 35 34 33 33 33 34 34 34 34 34 34 34 35 36 36 37 37 36 36 35 34 34 33 32 32 31 31 30 30 30 30 31 31 31 32 32 32 32 32 32 33 33 33 33 34 33 32 30 28 28 28
40 40 39 39 39 39 39 39 39 40 40 40 40 39 39 38 37 36 35 34 34 34 34 34 34 34 34 34 34 35 35 35 36 37 37 37 36 36 35 34 33 32 32 31 30 30 30 30 30 30 31 31 32 32 32 32 32 32 32 33 33 33 33 33 31 29 28 28 28
41 41 40 40 40 39 39 39 39 39 40 40 40 40 39 39 38 37 36 35 34 34 34 34 34 34 34 34 34 35 35 36 36 37 37 37 36 35 35 34 33 33 32 31 30 30 30 30 30 30 30 31 31 31 31 31 32 32 32 33 33 33 32 31 29 28 27 27 28
42 42 41 41 41 40 40 39 39 39 39 40 40 40 40 39 39 38 36 35 34 34 33 33 34 34 34 34 34 35 35 36 36 37 37 36 36 35 35 34 33 32 31 31 30 29 29 29 29 30 30 31 31 31 31 31 31 32 32 32 33 32 31 29 26 25 25 26 27
42 42 42 42 41 41 40 39 39 39 39 40 40 40 40 40 40 39 37 36 35 34 33 33 33 33 33 34 34 34 35 36 36 37 37 36 36 35 34 33 32 32 31 30 30 29 29 29 29 30 30 31 31 31 31 31 31 31 31 32 32 32 29 27 24 24 24 25 27
42 42 42 42 41 41 40 39 39 39 39 39 40 40 40 40 40 40 39 37 36 34 33 33 33 33 33 33 34 34 35 36 36 37 37 36 36 35 34 33 32 32 31 30 29 28 28 28 28 29 30 31 31 32 31 31 30 30 31 32 32 31 28 26 24 23 24 24 25
42 42 41 41 41 40 39 39 38 38 39 39 40 40 40 41 41 40 39 38 37 35 34 33 33 33 33 33 34 35 35 36 36 37 37 36 36 35 34 33 32 32 31 31 29 28 27 27 28 29 30 31 31 32 31 31 31 31 31 32 32 30 27 25 24 23 23 23 24
41 41 41 40 40 39 39 38 38 38 38 39 40 40 40 40 40 40 40 39 37 35 34 33 33 34 34 34 35 35 36 36 37 37 37 36 36 35 34 33 32 32 31 30 29 28 27 28 28 29 30 30 31 32 32 32 31 31 31 32 31 29 26 25 24 23 22 22 23
40 40 39 39 39 38 38 38 37 38 38 39 39 40 39 39 39 39 39 38 37 35 34 34 34 34 35 35 35 36 36 37 37 37 37 36 35 34 34 33 32 32 31 29 28 28 28 28 29 29 30 30 31 31 32 32 32 31 31 31 29 28 26 24 23 22 22 22 22
39 38 38 38 38 38 38 37 37 37 38 39 39 39 38 38 38 38 38 38 37 36 35 35 35 35 35 36 36 36 37 37 38 38 37 36 35 34 33 33 32 31 29 28 27 27 27 28 29 29 29 29 30 31 31 32 32 31 31 30 29 27 26 24 23 22 22 22 22
37 37 37 37 37 37 37 37 37 38 38 38 38 38 38 38 38 38 37 37 36 36 35 35 35 36 36 36 36 37 37 37 37 37 37 36 35 34 33 32 31 29 27 26 25 25 26 27 28 28 28 27 27 28 29 30 30 30 30 29 28 27 25 23 23 23 22 22 21
36 36 36 36 37 37 37 38 38 38 38 38 39 39 39 38 38 37 37 36 36 35 35 35 35 36 36 36 36 37 37 37 36 36 35 35 34 33 32 31 29 28 26 24 23 23 23 24 25 26 27 26 25 25 25 26 27 28 28 28 26 25 23 23 23 23 23 22 21
36 36 36 36 37 37 38 38 39 39 39 39 39 39 39 39 38 37 36 35 35 35 35 36 36 36 36 36 36 36 36 36 35 34 34 33 33 32 31 30 28 26 24 22 21 20 20 21 23 25 26 25 24 23 23 23 24 25 26 25 24 23 23 23 23 23 23 21 20
36 36 36 36 37 38 39 39 39 39 40 40 40 40 40 39 39 38 36 35 35 35 36 36 36 37 37 37 37 36 36 35 34 33 32 32 32 31 30 29 27 25 23 21 19 18 18 20 22 24 25 24 23 22 22 22 23 23 23 23 22 22 22 23 23 23 22 21 20
36 36 36 37 38 39 39 40 40 40 40 40 40 40 40 39 39 38 37 35 35 35 35 36 36 37 37 37 37 36 36 34 33 32 32 31 31 30 29 28 26 24 22 20 19 18 20 22 24 25 25 23 22 21 22 22 22 22 21 20 20 21 22 23 23 22 21 20 20
36 36 37 37 38 39 40 40 40 40 40 40 40 40 40 39 39 38 37 36 35 35 35 36 36 36 36 36 36 36 35 34 33 32 31 31 30 29 29 28 26 24 21 20 19 20 21 22 23 24 23 22 20 19 19 20 21 21 20 19 20 21 22 22 22 21 20 20 20
36 37 37 38 39 39 39 40 40 40 39 39 39 40 40 40 39 38 37 36 36 36 36 36 36 36 36 36 36 36 34 33 32 31 30 30 29 29 28 27 25 23 21 20 19 20 20 20 21 21 21 20 19 17 17 18 19 20 20 20 20 21 21 21 21 19 19 19 20
37 37 37 38 38 39 39 40 39 39 39 39 39 39 39 39 39 39 38 36 36 36 36 36 35 35 36 36 35 35 34 32 31 31 30 30 29 28 28 27 25 23 21 20 19 19 19 20 20 20 20 20 20 18 17 17 18 19 20 20 21 21 21 20 19 18 18 18 18
38 38 37 37 38 38 39 39 39 39 39 39 39 39 39 39 39 39 38 36 35 35 35 35 35 35 35 35 35 34 33 32 31 30 30 29 29 28 27 26 25 24 22 21 20 19 19 20 20 20 20 20 20 20 18 18 18 19 19 20 20 20 19 18 17 17 16 17 17
38 38 37 37 37 38 38 39 39 39 38 38 39 39 40 39 40 39 38 36 34 34 35 35 36 35 35 35 34 34 33 32 31 30 29 28 28 27 26 26 25 24 23 22 21 20 20 20 20 20 20 20 20 19 18 17 16 16 17 17 18 18 17 17 16 16 16 16 16
38 38 37 36 37 37 38 38 39 39 38 38 39 40 40 40 40 40 38 35 33 33 34 35 36 36 35 35 34 34 33 32 31 29 28 28 27 26 26 25 25 24 23 22 21 21 20 20 20 20 20 20 19 17 15 14 13 13 14 15 16 16 16 16 16 15 15 16 16
39 38 37 36 36 37 37 38 39 39 39 39 39 39 40 40 40 40 38 35 34 33 34 35 36 36 35 35 35 34 33 32 31 29 28 27 26 26 25 24 24 23 22 22 21 20 20 19 19 19 20 20 18 15 13 12 12 13 14 15 15 15 16 16 16 16 16 17 17
Wind_Direction
328 329 329 329 329 328 328 327 326 325 323 321 318 316 314 313 313 314 315 316 316 317 318 318 318 318 318 317 316 315 313 312 311 310 309 309 308 308 307 305 304 302 299 297 296 296 296 298 299 299 299 298 297 296 295 295 294 292 290 287 285 283 281 278 275 273 273 275 277
327 328 328 328 328 327 327 326 326 325 324 321 318 316 314 312 311 311 312 313 314 315 316 316 316 317 317 316 316 315 313 312 311 310 309 309 308 308 307 305 304 302 300 298 296 295 296 297 299 299 299 299 298 297 296 295 295 293 291 287 285 283 281 279 276 273 272 273 275
326 326 326 326 326 326 325 325 324 324 324 322 319 316 313 311 310 310 310 311 312 312 313 314 315 315 315 315 315 314 313 312 311 310 309 309 308 308 307 306 304 303 300 298 296 295 295 297 298 299 299 299 299 298 297 296 296 295 292 288 284 282 281 279 276 273 272 272 274
324 325 325 325 325 324 324 324 324 324 323 322 320 317 314 312 310 309 309 309 309 310 311 312 313 314 314 314 314 314 313 312 310 309 309 308 308 308 308 307 305 303 301 298 296 295 295 296 297 298 299 299 300 299 299 298 297 296 293 289 285 282 280 278 276 274 272 271 273
323 323 323 323 323 323 323 323 323 323 323 322 320 318 316 314 312 310 309 308 308 308 309 310 311 312 313 313 313 313 312 311 310 309 308 308 308 308 308 307 306 304 301 298 296 294 294 295 296 297 298 299 299 300 299 299 298 297 294 290 286 282 279 278 276 274 272 271 273
322 322 322 322 323 323 323 323 323 323 322 322 321 319 318 316 314 311 309 307 307 307 307 308 309 310 311 312 312 312 311 310 309 308 307 307 307 307 307 307 306 304 301 299 296 294 294 294 296 297 298 299 300 300 300 300 299 297 295 292 287 282 279 276 274 271 270 269 271
321 321 322 322 322 323 323 323 323 322 322 322 321 320 318 317 314 312 309 307 306 306 306 306 307 308 309 310 311 311 310 310 309 308 307 306 306 306 307 307 306 304 302 299 296 294 293 294 295 296 298 299 300 300 300 300 299 298 296 293 288 284 280 276 272 269 267 265 265
320 321 321 322 322 323 323 323 323 323 322 322 321 320 319 317 315 312 310 308 306 305 305 305 305 306 307 308 309 310 310 309 309 308 307 306 305 305 306 306 306 304 302 299 296 294 293 293 294 295 297 299 300 300 300 300 299 298 296 294 291 286 281 277 272 268 265 263 262
320 320 320 321 322 323 323 323 323 323 322 321 321 320 319 317 315 312 310 308 306 305 304 303 304 305 306 307 308 309 310 310 309 308 307 306 306 305 305 305 305 304 301 298 296 294 292 292 293 295 297 299 300 301 301 301 301 300 298 296 293 289 283 278 273 268 265 262 261
319 319 320 321 322 323 323 323 323 322 322 321 320 319 318 317 315 312 310 308 306 304 303 303 303 304 305 306 307 308 309 310 310 309 308 307 306 306 305 305 304 303 301 298 295 293 291 291 292 294 297 300 302 303 303 303 303 302 300 298 295 291 286 280 274 269 264 261 260
319 320 321 322 323 323 323 323 322 322 321 321 320 319 318 317 315 313 311 309 306 304 303 303 303 303 304 305 306 308 309 310 310 309 308 307 307 306 305 305 304 303 300 297 294 292 290 290 292 295 298 301 303 304 304 304 303 302 301 299 297 294 289 283 276 270 264 260 259
320 321 321 322 323 323 322 322 322 321 321 321 320 320 319 317 315 313 311 309 307 305 303 303 302 302 303 304 306 307 308 309 309 309 308 307 307 306 305 305 304 302 300 297 293 291 289 290 292 295 297 300 302 303 303 303 303 302 301 300 298 296 292 286 279 272 264 259 257
321 321 322 322 322 322 322 321 321 321 321 320 320 320 319 317 315 314 312 309 307 305 304 303 302 302 302 303 305 306 307 308 309 309 308 307 306 305 305 304 303 302 299 296 293 290 288 289 290 292 295 297 298 300 301 302 301 301 301 300 299 297 294 289 282 274 265 258 255
321 322 322 322 321 321 321 320 320 320 321 320 320 320 319 317 315 313 311 309 307 306 305 303 302 302 302 303 304 305 306 307 307 308 307 306 305 304 303 303 302 301 299 296 292 289 287 287 288 290 292 294 296 297 299 299 299 299 299 299 298 297 294 290 284 276 266 258 254
321 322 322 321 321 320 320 320 320 320 320 320 320 320 318 316 314 312 310 308 307 306 305 304 303 302 301 301 302 303 304 305 306 306 305 305 304 303 302 301 301 300 299 296 292 288 286 285 287 288 291 292 294 295 296 297 297 297 297 297 296 296 294 291 286 278 268 258 253
322 322 321 321 321 321 320 320 320 320 320 320 320 319 317 315 313 311 309 308 306 305 304 303 302 302 301 300 300 301 301 303 304 304 304 303 303 302 301 300 300 299 298 295 292 288 285 284 285 287 289 291 292 293 294 295 295 295 295 295 295 294 293 291 286 279 269 259 254
322 322 322 322 321 321 320 320 320 320 320 320 320 319 317 314 312 310 309 307 306 304 303 302 302 301 300 299 298 298 299 300 301 302 303 303 302 301 300 299 299 298 297 294 291 288 285 283 283 285 287 289 291 292 293 294 294 295 295 295 294 293 292 290 286 279 269 260 254
324 323 323 323 322 321 320 320 320 320 320 320 320 319 317 315 313 310 308 307 305 304 303 302 302 300 299 298 297 297 297 298 300 301 302 302 302 301 299 299 298 297 296 293 290 287 284 283 283 283 285 287 289 291 292 293 294 295 295 295 294 293 292 290 285 278 268 260 254
325 325 324 324 322 321 320 320 320 320 320 320 320 319 318 316 313 311 309 307 306 305 304 303 302 301 300 299 298 297 297 297 299 300 301 302 302 301 299 298 298 297 295 292 289 286 284 282 282 283 285 287 289 291 292 293 293 294 294 295 294 293 292 289 285 278 268 259 255
325 325 325 324 323 322 320 320 320 319 319 320 320 319 318 316 314 312 309 308 307 307 306 304 303 302 301 300 299 298 297 298 298 299 301 302 302 301 299 298 297 296 294 292 289 286 284 282 282 283 285 287 289 291 292 292 292 293 293 293 292 292 290 289 285 278 268 259 254
325 325 324 324 323 322 321 320 320 319 319 319 319 319 318 317 315 313 310 309 308 307 306 305 304 303 302 301 299 298 298 298 298 298 300 301 301 301 299 298 297 296 294 292 289 286 284 283 282 283 285 287 289 291 292 292 292 292 292 291 291 290 289 287 283 276 267 259 253
325 324 324 323 323 322 321 321 320 320 319 318 318 318 318 317 316 314 312 310 309 308 307 306 305 304 302 301 300 299 298 297 297 298 299 300 301 300 299 298 297 296 294 292 290 287 284 283 282 283 285 288 290 292 293 293 292 292 291 290 290 289 287 284 280 274 267 259 253
323 323 323 322 322 322 321 321 320 319 318 318 318 317 317 317 316 315 313 311 310 309 308 307 306 305 304 302 300 299 298 297 297 297 298 299 300 300 299 298 297 296 294 293 290 287 284 283 283 284 286 288 290 292 293 293 292 291 290 289 289 288 285 281 276 273 268 262 254
322 322 322 321 321 321 320 320 319 319 318 317 317 317 316 316 316 316 314 313 311 310 309 309 308 307 305 304 301 299 297 296 296 297 298 300 300 301 300 298 297 295 294 292 290 287 285 284 284 285 287 289 291 293 293 292 290 288 287 287 287 285 281 276 272 271 269 265 257
321 321 320 320 320 320 319 319 318 317 317 316 316 316 315 315 315 315 314 313 312 312 311 311 311 310 308 306 303 300 298 296 296 296 298 300 301 301 301 299 297 295 294 292 290 287 285 285 286 288 289 291 293 293 293 291 288 285 283 283 283 282 277 271 268 268 269 267 259
320 319 319 319 319 318 318 317 316 316 316 315 315 314 314 314 314 314 313 313 313 313 313 314 313 313 311 308 304 301 299 297 296 296 297 299 301 301 301 299 297 296 294 293 291 288 287 286 287 289 290 291 291 291 289 286 282 280 278 279 279 277 272 268 267 268 269 266 259
319 319 319 318 318 317 316 316 315 314 314 313 313 313 313 313 313 312 312 312 312 313 314 315 314 313 311 308 304 301 299 297 296 296 296 298 299 300 299 298 296 295 293 292 291 289 288 288 288 289 289 289 288 286 284 281 278 276 275 276 275 271 267 265 267 269 268 264 258
319 318 318 318 317 316 315 314 313 312 311 311 311 311 311 311 310 309 309 310 311 312 313 313 313 312 309 306 303 301 299 297 296 296 296 297 298 298 298 296 294 293 292 291 290 290 290 290 290 291 290 288 285 283 280 278 276 275 274 273 270 266 263 262 266 269 269 265 258
318 318 318 317 316 315 314 312 310 309 309 309 310 310 309 309 308 307 307 307 309 310 311 311 310 309 307 304 302 300 299 297 296 296 296 296 297 296 296 294 293 292 291 291 291 291 291 292 293 292 291 288 283 279 276 274 273 272 271 269 266 263 262 263 266 268 269 266 260
318 317 317 315 314 313 312 310 309 308 307 308 308 308 308 307 306 306 305 306 307 308 308 309 308 307 306 304 303 300 299 298 297 297 296 296 296 295 295 294 293 292 292 291 292 293 294 295 296 295 292 287 281 276 272 270 268 267 266 264 261 260 262 264 267 268 268 266 261
317 316 315 314 313 312 310 309 308 307 306 307 307 307 307 306 306 305 305 305 306 307 307 307 307 306 306 305 304 303 301 300 299 298 296 295 295 295 295 295 294 292 291 292 293 296 299 301 300 297 293 287 279 272 267 264 262 260 259 258 257 259 262 265 267 268 267 264 259
315 315 313 312 311 310 309 309 308 307 307 307 307 307 307 306 306 307 307 306 306 306 306 306 307 307 306 306 306 305 304 303 301 299 297 296 296 296 295 295 293 292 291 292 294 299 303 304 300 294 289 284 276 269 262 259 256 255 254 255 257 259 262 264 266 267 266 262 255
314 313 312 310 310 309 309 309 308 308 308 308 308 307 307 307 308 308 308 307 306 305 305 306 306 307 307 307 307 306 305 304 302 300 298 297 296 296 295 294 292 291 291 292 294 297 298 294 288 284 283 281 276 268 261 257 255 254 254 256 259 260 262 264 266 266 264 259 250
311 311 310 309 309 309 309 309 310 310 309 309 308 308 307 308 308 308 308 307 306 305 304 304 305 306 307 307 307 306 305 303 302 300 298 297 296 295 293 292 290 289 289 289 289 287 285 282 280 281 282 282 277 269 261 257 254 254 254 256 259 261 262 263 264 264 260 253 245
309 308 308 308 308 308 309 310 310 310 310 308 308 308 308 308 308 308 307 307 306 304 302 302 304 306 307 307 307 306 305 303 302 300 298 297 295 294 292 290 289 288 287 285 283 280 279 281 285 289 291 290 285 275 266 259 255 254 253 254 256 258 261 262 262 260 254 247 240
308 307 307 307 308 308 309 310 310 310 309 308 308 307 307 308 307 307 307 306 305 304 302 303 304 306 307 307 307 306 305 303 301 299 297 296 294 293 291 289 287 286 284 282 280 280 283 288 294 299 301 301 296 287 275 265 259 255 253 252 253 256 258 260 259 255 248 241 235
306 306 306 306 307 308 309 309 309 309 309 308 308 307 307 306 306 307 307 307 305 304 303 303 305 306 307 308 307 306 304 303 300 298 296 295 294 292 291 289 287 284 282 280 280 283 288 293 298 302 303 303 300 294 283 271 262 257 253 252 252 254 256 257 255 250 243 236 231
306 306 306 306 306 307 308 308 308 308 308 308 307 307 306 306 306 306 307 307 306 305 304 304 304 305 306 307 306 305 303 301 299 297 295 294 293 292 291 289 287 284 280 279 280 284 290 295 299 301 302 301 300 296 288 277 267 259 255 252 252 252 253 252 250 245 239 233 227
305 305 305 305 305 306 307 307 307 307 307 307 306 306 306 306 306 307 308 308 307 306 304 303 303 304 306 306 306 304 302 300 298 296 294 293 292 291 290 289 287 284 281 280 281 284 289 294 298 299 299 299 298 294 288 280 270 261 254 250 248 247 247 245 243 239 234 229 224
305 305 305 304 305 305 305 306 306 306 306 306 306 306 306 306 307 308 309 309 307 306 304 302 302 303 305 306 306 304 302 299 297 295 294 293 292 291 290 288 287 285 283 282 283 285 289 293 296 297 297 298 295 290 281 271 261 251 244 239 239 239 238 236 234 231 227 223 219
304 304 304 304 304 304 304 304 305 305 306 306 305 305 306 307 308 309 309 307 306 304 302 301 301 302 304 306 306 304 302 300 298 296 294 293 292 290 289 288 287 286 285 284 285 287 289 291 293 294 296 297 293 282 264 248 238 230 225 224 227 228 227 225 222 220 216 212 209
Height
1477 1475 1474 1473 1471 1469 1468 1466 1464 1463 1462 1460 1459 1457 1456 1455 1453 1452 1451 1450 1448 1447 1445 1444 1443 1442 1441 1440 1439 1438 1437 1436 1435 1434 1433 1432 1431 1430 1429 1428 1427 1427 1426 1425 1424 1423 1422 1421 1420 1418 1417 1416 1415 1414 1413 1413 1412 1411 1410 1409 1408 1407 1407 1407 1407 1407 1408 1407 1407
1475 1473 1472 1471 1469 1468 1466 1464 1463 1461 1460 1458 1457 1456 1454 1453 1451 1450 1448 1448 1446 1445 1444 1443 1442 1440 1439 1438 1437 1436 1435 1434 1433 1432 1431 1430 1429 1428 1427 1426 1425 1424 1423 1423 1422 1421 1420 1419 1418 1416 1415 1414 1413 1412 1411 1411 1410 1409 1408 1407 1406 1405 1404 1404 1404 1404 1405 1405 1404
1473 1472 1470 1469 1468 1466 1464 1462 1461 1459 1458 1457 1455 1454 1453 1451 1450 1448 1447 1446 1444 1443 1442 1441 1440 1438 1437 1436 1435 1434 1433 1432 1431 1430 1429 1428 1427 1426 1425 1423 1423 1422 1421 1421 1420 1419 1418 1417 1416 1414 1413 1412 1411 1410 1409 1408 1408 1407 1406 1404 1404 1403 1402 1401 1401 1401 1402 1402 1402
1471 1470 1468 1467 1466 1464 1463 1461 1459 1458 1456 1455 1453 1452 1451 1449 1448 1447 1445 1444 1443 1441 1440 1439 1438 1437 1435 1434 1433 1432 1431 1430 1429 1428 1427 1426 1425 1424 1423 1422 1420 1420 1419 1418 1418 1417 1416 1415 1414 1413 1411 1410 1409 1408 1407 1407 1406 1405 1403 1403 1402 1401 1400 1399 1398 1399 1399 1399 1400
1469 1468 1467 1465 1463 1462 1460 1459 1457 1455 1454 1453 1451 1450 1448 1447 1446 1445 1443 1442 1440 1439 1438 1437 1436 1434 1433 1432 1431 1430 1429 1428 1427 1426 1425 1423 1423 1422 1421 1419 1418 1418 1417 1416 1415 1415 1414 1413 1412 1411 1409 1408 1407 1406 1405 1405 1403 1402 1401 1401 1400 1399 1398 1397 1397 1397 1397 1397 1397
1467 1466 1464 1463 1462 1460 1458 1457 1455 1453 1452 1450 1449 1447 1446 1445 1444 1443 1441 1440 1438 1437 1436 1435 1434 1433 1431 1430 1429 1428 1427 1426 1425 1424 1423 1422 1421 1420 1418 1417 1416 1415 1414 1414 1413 1413 1412 1411 1410 1409 1408 1407 1405 1404 1404 1403 1402 1400 1399 1398 1398 1397 1396 1395 1395 1395 1395 1395 1395
1465 1463 1462 1461 1459 1458 1456 1454 1453 1451 1450 1448 1447 1445 1444 1443 1442 1440 1439 1438 1436 1435 1434 1433 1432 1431 1429 1428 1427 1426 1425 1424 1423 1422 1420 1419 1418 1418 1417 1415 1414 1413 1412 1412 1411 1410 1410 1409 1408 1407 1406 1405 1403 1403 1402 1401 1400 1398 1397 1396 1395 1395 1394 1393 1393 1392 1392 1392 1393
1463 1462 1460 1458 1457 1455 1454 1452 1451 1449 1447 1446 1444 1443 1442 1440 1439 1438 1437 1436 1434 1433 1432 1431 1430 1428 1427 1426 1425 1424 1423 1422 1420 1419 1418 1417 1416 1415 1414 1413 1412 1411 1410 1410 1409 1408 1408 1407 1406 1405 1403 1403 1402 1400 1400 1399 1398 1396 1395 1394 1393 1393 1392 1391 1391 1390 1390 1390 1390
1461 1459 1458 1456 1455 1453 1452 1450 1448 1447 1445 1443 1442 1441 1440 1438 1437 1436 1434 1433 1432 1431 1430 1429 1428 1427 1425 1424 1423 1422 1421 1419 1418 1417 1416 1415 1414 1413 1412 1411 1410 1409 1408 1408 1407 1406 1405 1404 1403 1403 1402 1401 1399 1398 1398 1397 1395 1394 1393 1392 1391 1390 1389 1389 1388 1388 1388 1388 1388
1459 1457 1456 1454 1452 1451 1449 1448 1446 1445 1443 1441 1440 1439 1438 1436 1435 1433 1432 1431 1430 1428 1428 1426 1425 1424 1423 1422 1421 1419 1418 1417 1416 1415 1413 1413 1412 1411 1410 1409 1408 1407 1406 1405 1405 1404 1403 1402 1401 1400 1399 1398 1397 1396 1395 1394 1393 1392 1391 1390 1389 1388 1387 1387 1386 1386 1386 1386 1386
1457 1455 1453 1452 1450 1448 1447 1445 1443 1442 1441 1439 1438 1437 1435 1434 1433 1431 1430 1428 1427 1426 1425 1424 1423 1422 1420 1419 1418 1417 1416 1415 1414 1413 1411 1410 1409 1408 1408 1407 1406 1405 1404 1403 1403 1402 1401 1400 1399 1398 1397 1397 1395 1394 1393 1392 1391 1390 1389 1388 1387 1386 1385 1384 1384 1384 1384 1384 1384
1454 1453 1451 1449 1448 1446 1444 1443 1441 1440 1438 1437 1436 1434 1433 1431 1430 1429 1427 1426 1425 1423 1423 1422 1421 1419 1418 1417 1416 1415 1414 1413 1412 1410 1409 1408 1407 1406 1405 1404 1403 1403 1402 1401 1400 1399 1398 1398 1397 1396 1395 1395 1394 1393 1392 1390 1389 1388 1387 1385 1385 1384 1383 1382 1382 1382 1382 1382 1382
1452 1450 1449 1447 1446 1444 1443 1441 1439 1438 1436 1435 1433 1432 1430 1429 1428 1426 1425 1423 1422 1421 1420 1419 1418 1417 1416 1414 1413 1413 1411 1410 1409 1408 1407 1406 1405 1404 1403 1402 1401 1400 1400 1399 1398 1397 1396 1395 1394 1394 1393 1393 1392 1391 1390 1389 1388 1386 1385 1383 1383 1382 1381 1380 1380 1379 1380 1380 1380
1450 1448 1447 1445 1443 1442 1440 1439 1437 1436 1434 1433 1431 1429 1428 1426 1425 1424 1423 1421 1420 1418 1418 1417 1416 1415 1413 1412 1411 1410 1409 1408 1407 1406 1405 1404 1403 1402 1401 1400 1399 1398 1397 1396 1396 1395 1394 1393 1393 1392 1391 1390 1390 1389 1388 1387 1386 1384 1383 1382 1381 1379 1378 1378 1377 1377 1378 1378 1378
1448 1446 1445 1443 1442 1440 1438 1437 1435 1433 1432 1430 1429 1428 1426 1424 1423 1422 1420 1419 1417 1416 1415 1414 1413 1412 1411 1410 1409 1408 1407 1406 1405 1403 1403 1402 1401 1400 1399 1398 1397 1396 1395 1394 1393 1393 1392 1391 1390 1389 1389 1388 1388 1387 1386 1385 1384 1383 1381 1380 1379 1378 1376 1375 1375 1375 1375 1375 1375
1446 1444 1443 1441 1439 1438 1436 1435 1433 1432 1430 1428 1427 1425 1424 1422 1421 1419 1418 1417 1415 1414 1413 1412 1411 1409 1409 1408 1407 1406 1405 1403 1403 1401 1400 1399 1398 1398 1397 1395 1394 1394 1393 1392 1391 1390 1389 1389 1388 1387 1387 1386 1385 1384 1384 1383 1382 1381 1379 1378 1377 1376 1374 1373 1373 1373 1373 1373 1373
1444 1442 1441 1439 1438 1436 1434 1433 1431 1430 1428 1426 1425 1423 1422 1420 1418 1417 1416 1414 1413 1412 1410 1409 1408 1408 1406 1405 1405 1404 1403 1401 1400 1399 1398 1397 1396 1395 1394 1393 1392 1392 1391 1390 1388 1388 1387 1386 1386 1385 1384 1383 1383 1382 1381 1380 1379 1378 1377 1376 1375 1373 1373 1372 1371 1370 1370 1371 1371
1442 1440 1438 1437 1435 1434 1432 1431 1429 1428 1426 1424 1423 1421 1419 1418 1416 1415 1413 1412 1411 1409 1408 1407 1406 1405 1404 1403 1402 1401 1400 1399 1398 1397 1396 1395 1394 1393 1392 1391 1390 1389 1388 1387 1386 1385 1384 1384 1383 1383 1382 1381 1380 1379 1379 1378 1377 1376 1374 1373 1373 1371 1370 1369 1369 1368 1368 1368 1368
1439 1438 1436 1435 1433 1432 1430 1428 1427 1425 1424 1422 1420 1419 1417 1416 1414 1413 1411 1409 1408 1407 1406 1404 1403 1402 1402 1400 1399 1399 1398 1397 1395 1394 1393 1392 1391 1390 1389 1388 1388 1387 1386 1385 1384 1383 1382 1381 1381 1380 1379 1379 1378 1377 1376 1375 1374 1373 1372 1371 1370 1369 1368 1367 1367 1366 1366 1366 1366
1438 1436 1434 1433 1431 1429 1428 1426 1425 1423 1421 1420 1418 1417 1415 1413 1412 1410 1408 1407 1406 1405 1403 1402 1401 1399 1398 1398 1397 1396 1395 1394 1393 1392 1391 1390 1389 1388 1387 1386 1385 1384 1383 1383 1382 1381 1380 1379 1378 1378 1377 1376 1375 1374 1373 1373 1372 1371 1370 1369 1368 1367 1366 1365 1364 1364 1364 1364 1364
1435 1434 1432 1431 1429 1427 1426 1424 1423 1421 1419 1418 1416 1414 1413 1411 1409 1408 1406 1405 1403 1402 1401 1399 1398 1397 1396 1395 1394 1393 1392 1392 1390 1389 1388 1387 1386 1385 1384 1383 1382 1381 1381 1380 1379 1378 1378 1377 1376 1375 1375 1374 1373 1372 1371 1370 1369 1368 1367 1366 1365 1364 1363 1363 1362 1362 1362 1362 1362
1433 1431 1430 1428 1427 1425 1423 1422 1420 1418 1417 1415 1413 1412 1410 1408 1407 1405 1404 1403 1401 1400 1398 1397 1396 1394 1393 1393 1392 1391 1390 1389 1388 1387 1386 1385 1383 1383 1382 1381 1380 1379 1378 1377 1377 1376 1375 1374 1374 1373 1372 1371 1370 1369 1368 1368 1367 1366 1365 1364 1363 1362 1361 1361 1360 1359 1359 1360 1360
1431 1429 1428 1426 1424 1423 1421 1419 1418 1416 1414 1413 1411 1409 1408 1406 1404 1403 1402 1400 1399 1397 1396 1395 1393 1392 1391 1390 1389 1388 1387 1386 1385 1384 1383 1382 1381 1380 1379 1378 1377 1376 1375 1374 1374 1373 1373 1372 1371 1371 1370 1369 1368 1367 1366 1365 1364 1363 1362 1361 1360 1359 1359 1358 1358 1358 1358 1358 1358
1428 1427 1425 1423 1422 1420 1418 1417 1415 1414 1412 1410 1409 1407 1405 1404 1402 1400 1399 1398 1396 1395 1393 1392 1391 1390 1388 1388 1387 1386 1385 1383 1382 1381 1380 1380 1378 1378 1377 1376 1374 1373 1373 1372 1372 1371 1371 1370 1369 1368 1368 1367 1366 1365 1364 1363 1362 1361 1360 1359 1358 1357 1357 1356 1356 1356 1356 1356 1356
1427 1425 1423 1421 1420 1418 1416 1415 1413 1411 1410 1408 1407 1405 1403 1401 1400 1398 1396 1395 1393 1392 1391 1390 1388 1387 1386 1385 1384 1383 1382 1381 1380 1379 1378 1377 1376 1375 1374 1373 1372 1371 1370 1369 1369 1369 1368 1368 1367 1366 1365 1364 1363 1362 1361 1360 1359 1359 1358 1357 1356 1355 1355 1354 1354 1354 1354 1354 1355
1424 1423 1421 1419 1417 1416 1414 1413 1411 1409 1408 1406 1404 1403 1401 1399 1397 1396 1394 1392 1391 1390 1389 1388 1386 1385 1384 1383 1382 1381 1380 1379 1378 1377 1375 1374 1373 1372 1371 1370 1369 1368 1368 1367 1367 1367 1366 1366 1365 1364 1363 1363 1361 1360 1359 1358 1358 1357 1356 1355 1354 1354 1353 1353 1352 1352 1353 1353 1353
1422 1420 1418 1417 1415 1413 1412 1410 1409 1407 1406 1404 1402 1400 1398 1397 1395 1393 1392 1390 1389 1388 1387 1385 1384 1383 1382 1380 1379 1378 1377 1376 1375 1374 1373 1372 1371 1370 1369 1368 1367 1366 1365 1365 1364 1364 1364 1363 1363 1362 1361 1360 1359 1358 1357 1356 1355 1355 1354 1353 1353 1352 1351 1351 1351 1351 1351 1351 1351
1420 1418 1417 1415 1413 1411 1410 1408 1407 1405 1403 1402 1400 1398 1397 1395 1393 1391 1390 1388 1387 1386 1385 1383 1382 1381 1380 1378 1377 1376 1375 1374 1373 1372 1371 1370 1369 1368 1367 1366 1365 1364 1363 1363 1362 1362 1361 1360 1360 1359 1358 1358 1357 1355 1354 1353 1353 1352 1352 1351 1350 1350 1349 1349 1349 1349 1349 1349 1350
1418 1417 1415 1413 1411 1409 1408 1406 1405 1403 1402 1400 1398 1396 1394 1393 1391 1389 1388 1386 1385 1384 1383 1382 1380 1379 1378 1376 1375 1374 1373 1372 1371 1370 1369 1368 1366 1365 1364 1363 1362 1361 1361 1360 1360 1359 1358 1358 1357 1356 1356 1355 1354 1353 1352 1351 1350 1350 1349 1349 1348 1348 1348 1348 1348 1348 1348 1348 1348
1417 1415 1413 1411 1409 1408 1406 1404 1403 1401 1399 1398 1396 1394 1392 1391 1389 1387 1386 1384 1383 1382 1381 1380 1378 1377 1376 1374 1373 1372 1371 1370 1369 1368 1367 1365 1364 1363 1362 1361 1360 1359 1358 1358 1358 1357 1356 1355 1354 1353 1353 1352 1351 1350 1349 1348 1348 1347 1347 1346 1346 1346 1346 1346 1346 1346 1346 1347 1347
1414 1413 1411 1409 1408 1406 1404 1403 1401 1399 1398 1396 1393 1392 1390 1388 1387 1385 1384 1383 1381 1380 1379 1378 1376 1375 1373 1372 1371 1370 1368 1367 1366 1365 1364 1363 1362 1360 1359 1358 1357 1357 1356 1356 1355 1354 1354 1353 1352 1351 1350 1349 1348 1347 1346 1345 1345 1345 1344 1344 1344 1344 1344 1344 1344 1344 1345 1345 1345
1413 1411 1409 1408 1406 1404 1402 1401 1399 1397 1395 1393 1391 1389 1387 1386 1384 1383 1381 1380 1379 1378 1376 1375 1374 1372 1371 1369 1368 1367 1366 1365 1363 1363 1362 1360 1359 1358 1357 1356 1355 1354 1354 1354 1353 1352 1352 1351 1350 1349 1348 1346 1345 1344 1343 1343 1343 1343 1342 1342 1342 1342 1342 1343 1343 1343 1343 1343 1343
1411 1409 1408 1406 1404 1402 1400 1398 1396 1394 1393 1390 1388 1387 1385 1383 1381 1380 1379 1378 1377 1376 1374 1373 1371 1370 1368 1367 1366 1364 1363 1362 1361 1360 1359 1358 1357 1356 1354 1353 1353 1352 1352 1352 1351 1351 1350 1349 1348 1347 1345 1344 1343 1343 1342 1341 1341 1341 1340 1340 1340 1341 1341 1341 1341 1341 1341 1342 1342
1409 1407 1405 1404 1402 1400 1398 1396 1394 1392 1390 1388 1386 1384 1382 1381 1379 1378 1376 1375 1375 1373 1372 1371 1369 1368 1366 1365 1363 1362 1361 1360 1358 1358 1357 1356 1355 1354 1353 1352 1351 1350 1350 1350 1349 1349 1348 1347 1345 1344 1343 1342 1341 1341 1340 1340 1339 1339 1339 1339 1339 1339 1339 1339 1340 1340 1340 1340 1340
1407 1405 1403 1402 1399 1398 1396 1393 1392 1390 1388 1386 1383 1382 1380 1378 1377 1376 1374 1373 1372 1371 1370 1368 1367 1365 1364 1363 1361 1360 1358 1357 1356 1355 1354 1354 1353 1352 1351 1349 1349 1348 1348 1348 1348 1347 1346 1345 1344 1343 1342 1340 1339 1338 1338 1338 1338 1337 1337 1338 1338 1338 1338 1338 1338 1338 1338 1338 1339
1405 1403 1401 1399 1397 1395 1393 1391 1389 1388 1385 1383 1381 1379 1378 1376 1375 1373 1372 1371 1370 1368 1367 1366 1364 1363 1362 1360 1359 1358 1357 1355 1354 1353 1352 1352 1351 1350 1348 1348 1347 1347 1346 1346 1346 1345 1344 1343 1343 1341 1340 1339 1338 1337 1337 1336 1336 1336 1336 1336 1336 1336 1336 1336 1336 1336 1337 1337 1338
1403 1402 1399 1398 1395 1393 1391 1389 1387 1385 1383 1381 1379 1378 1376 1374 1373 1371 1370 1369 1368 1366 1364 1363 1362 1361 1359 1358 1357 1355 1354 1353 1352 1351 1350 1349 1348 1348 1347 1346 1345 1345 1344 1344 1344 1343 1343 1342 1341 1340 1339 1338 1336 1336 1335 1335 1334 1334 1334 1334 1334 1334 1335 1335 1335 1335 1335 1336 1336
1401 1399 1398 1396 1393 1391 1389 1387 1385 1383 1381 1379 1377 1376 1374 1372 1370 1369 1368 1367 1366 1364 1362 1361 1360 1358 1357 1356 1355 1353 1352 1351 1350 1349 1348 1347 1347 1346 1345 1344 1343 1343 1343 1343 1343 1342 1341 1340 1340 1339 1338 1336 1335 1334 1333 1333 1333 1333 1333 1333 1333 1333 1333 1333 1333 1334 1334 1335 1335
1399 1398 1396 1394 1392 1389 1387 1385 1383 1381 1379 1377 1375 1373 1372 1370 1368 1367 1365 1364 1363 1362 1360 1359 1358 1356 1355 1354 1353 1351 1349 1348 1348 1347 1346 1345 1345 1344 1343 1343 1342 1341 1341 1341 1341 1340 1340 1339 1338 1338 1336 1335 1334 1333 1332 1332 1331 1331 1331 1331 1331 1331 1332 1332 1333 1333 1333 1334 1335
1397 1395 1394 1392 1389 1388 1385 1383 1381 1379 1378 1376 1373 1371 1369 1368 1366 1364 1363 1362 1361 1360 1358 1357 1355 1354 1353 1352 1350 1348 1347 1346 1345 1345 1344 1343 1343 1342 1342 1341 1340 1339 1339 1339 1339 1339 1338 1338 1337 1336 1335 1334 1333 1332 1331 1331 1330 1330 1330 1330 1330 1330 1331 1331 1332 1332 1333 1333 1334
1395 1393 1392 1389 1388 1386 1383 1381 1379 1377 1375 1373 1372 1369 1368 1366 1364 1362 1361 1360 1358 1358 1357 1355 1353 1352 1351 1350 1348 1347 1345 1344 1343 1343 1342 1342 1341 1340 1340 1339 1339 1338 1338 1338 1338 1338 1337 1336 1335 1335 1333 1333 1332 1331 1331 1330 1330 1330 1329 1329 1329 1329 1330 1330 1331 1332 1333 1333 1334